Location: Unspecified
(43.3830°N, 0.0000°E)
Time: 03:53:06
(UTC+00:00)

Explorer 7 - Pass Details

Date: 27 June 2019
Orbit: 485 x 680 km, 50.3° (Epoch: 17 July)

Event Time Altitude Azimuth Distance (km) Brightness Sun altitude
Rises 05:44:01 0° 201° (SSW) 2,627 9.9 12.5°
Reaches altitude 10° 05:46:30 10° 186° (S) 1,775 9.2 12.9°
Maximum altitude 05:49:40 22° 134° (SE) 1,220 9.1 13.5°
Drops below altitude 10° 05:52:59 10° 83° (E) 1,876 11.8 14.1°
Sets 05:55:41 0° 68° (ENE) 2,820 12.4 14.5°
